Weather History for White Rock, BC

Change the Weather History Date:

Thursday, February 7, 2013

  Actual Average Record
Temperature  
Mean Temperature 44 °F -  
Max Temperature 49 °F - - ()
Min Temperature 36 °F - - ()
Degree Days  
Heating Degree Days 22    
Moisture  
Dew Point 37 °F    
Average Humidity 76    
Maximum Humidity 89    
Minimum Humidity 50    
Precipitation  
Precipitation 0.04 in - - ()
Sea Level Pressure  
Sea Level Pressure 30.01 in    
Wind  
Wind Speed 5 mph ()    
Max Wind Speed 10 mph    
Max Gust Speed 24 mph    
T = Trace of Precipitation, MM = Missing Value Source: Averaged Metar Reports

Daily Weather History Graph

Daily Weather History Graph

Search for Another Location

Airport:

Trip Planner

Search our weather history database for the weather conditions in past years. The results will help you decide how hot, cold, wet, or windy it might be!

Date:

Astronomy

Feb. 07, 2013 Rise Set
Actual Time 7:32 AM PST 5:19 PM PST
Civil Twilight 6:58 AM PST 5:52 PM PST
Nautical Twilight 6:21 AM PST 6:29 PM PST
Astronomical Twilight 5:44 AM PST 7:06 PM PST
Moon 5:24 AM PST (2/7) 2:42 PM PST (2/7)
Length of Visible Light 10h 53m
Length of Day
9h 46m
Waning Crescent, 8% of the Moon is Illuminated
Feb 7
Waning Crescent
Feb 9
New
Feb 17
First Quarter
Feb 25
Full
Mar 4
Last Quarter

Hourly Weather History & Observations

Time (PST) Temp. Windchill Dew Point Humidity Pressure Visibility Wind Dir Wind Speed Gust Speed Precip Events Conditions
12:00 AM 43.2 °F 39.0 °F 38.7 °F 84% 29.79 in - ENE 6.9 mph - N/A   Unknown
1:00 AM 43.5 °F 38.3 °F 38.7 °F 83% 29.78 in - ENE 9.2 mph - N/A   Unknown
2:00 AM 44.8 °F 41.0 °F 38.5 °F 79% 29.79 in - East 6.9 mph - N/A   Unknown
3:00 AM 45.9 °F 41.2 °F 38.1 °F 74% 29.79 in - ESE 9.2 mph 24.2 mph N/A   Unknown
4:00 AM 45 °F - 37 °F 66% 29.82 in - SSE 8.1 mph - -  
4:00 AM 45.3 °F 41.1 °F 37.4 °F 74% 29.82 in - SSE 8.1 mph - N/A   Unknown
5:00 AM 45.1 °F 39.9 °F 37.9 °F 76% 29.87 in - SSE 10.4 mph 20.7 mph N/A   Unknown
6:00 AM 44.6 °F 39.2 °F 39.0 °F 81% 29.91 in - South 10.4 mph 18.4 mph 0.01 in   Unknown
7:00 AM 44.4 °F 40.0 °F 38.8 °F 81% 29.93 in - SSE 8.1 mph - 0.05 in   Unknown
8:00 AM 43.7 °F 39.7 °F 38.1 °F 81% 29.98 in - SSE 6.9 mph - N/A   Unknown
9:00 AM 43.3 °F 39.2 °F 38.5 °F 83% 30.00 in - SSE 6.9 mph - N/A   Unknown
10:00 AM 45 °F - 39 °F 72% 30.03 in - SE 4.6 mph - -  
10:00 AM 45.0 °F 42.6 °F 39.0 °F 80% 30.03 in - SE 4.6 mph - N/A   Unknown
11:00 AM 46.8 °F - 39.7 °F 77% 30.05 in - SE 3.5 mph - N/A   Unknown
12:00 PM 47.7 °F - 37.6 °F 68% 30.06 in - South 4.6 mph - N/A   Unknown
1:00 PM 47.8 °F - 34.7 °F 60% 30.06 in - South 3.5 mph - N/A   Unknown
2:00 PM 48.4 °F - 36.5 °F 64% 30.07 in - SSE 3.5 mph - N/A   Unknown
3:00 PM 48.9 °F - 35.2 °F 59% 30.08 in - SW 3.5 mph - N/A   Unknown
4:00 PM 49 °F - 36 °F 50% 30.09 in - SW 2.3 mph - -  
4:00 PM 48.6 °F - 36.0 °F 62% 30.09 in - SW 2.3 mph - N/A   Unknown
5:00 PM 45.5 °F - 37.2 °F 73% 30.10 in - West 2.3 mph - N/A   Unknown
6:00 PM 43.0 °F - 35.8 °F 76% 30.12 in - North 2.3 mph - N/A   Unknown
7:00 PM 41.4 °F - 36.1 °F 82% 30.14 in - North 2.3 mph - N/A   Unknown
8:00 PM 40.8 °F 38.8 °F 36.0 °F 83% 30.16 in - North 3.5 mph - N/A   Unknown
9:00 PM 38.7 °F 36.3 °F 35.1 °F 87% 30.18 in - North 3.5 mph - N/A   Unknown
10:00 PM 39 °F - 36 °F 83% 30.21 in - North 3.5 mph - -  
10:00 PM 38.7 °F 36.3 °F 35.6 °F 89% 30.21 in - North 3.5 mph - N/A   Unknown
11:00 PM 36.5 °F - 33.6 °F 89% 30.22 in - NE 1.2 mph - N/A   Unknown